Year,Month,Day,Hour,Minute,Value (Times are PST for windgust in km/hr)
2010,06,02,00,00,25.70
2010,06,02,00,01,12.90
2010,06,02,00,02,20.90
2010,06,02,00,03,19.30
2010,06,02,00,04,14.50
2010,06,02,00,05,20.90
2010,06,02,00,06,16.10
2010,06,02,00,07,19.30
2010,06,02,00,08,20.90
2010,06,02,00,09,25.70
2010,06,02,00,10,20.90
2010,06,02,00,11,19.30
2010,06,02,00,12,9.60
2010,06,02,00,13,17.70
2010,06,02,00,14,17.70
2010,06,02,00,15,17.70
2010,06,02,00,16,12.90
2010,06,02,00,17,19.30
2010,06,02,00,18,17.70
2010,06,02,00,19,24.20
2010,06,02,00,20,11.30
2010,06,02,00,21,12.90
2010,06,02,00,22,14.50
2010,06,02,00,23,22.50
2010,06,02,00,24,20.90
2010,06,02,00,25,24.20
2010,06,02,00,26,22.50
2010,06,02,00,27,25.70
2010,06,02,00,28,24.20
2010,06,02,00,29,14.50
2010,06,02,00,30,14.50
2010,06,02,00,31,17.70
2010,06,02,00,32,14.50
2010,06,02,00,33,16.10
2010,06,02,00,34,17.70
2010,06,02,00,35,19.30
2010,06,02,00,36,12.90
2010,06,02,00,37,14.50
2010,06,02,00,38,12.90
2010,06,02,00,39,19.30
2010,06,02,00,40,19.30
2010,06,02,00,41,14.50
2010,06,02,00,42,12.90
2010,06,02,00,43,9.60
2010,06,02,00,44,9.60
2010,06,02,00,45,19.30
2010,06,02,00,46,11.30
2010,06,02,00,47,12.90
2010,06,02,00,48,11.30
2010,06,02,00,49,12.90
2010,06,02,00,50,12.90
2010,06,02,00,51,17.70
2010,06,02,00,52,12.90
2010,06,02,00,53,11.30
2010,06,02,00,54,19.30
2010,06,02,00,55,11.30
2010,06,02,00,56,19.30
2010,06,02,00,57,12.90
2010,06,02,00,58,12.90
2010,06,02,00,59,12.90
2010,06,02,01,00,17.70
2010,06,02,01,01,17.70
2010,06,02,01,02,17.70
2010,06,02,01,03,12.90
2010,06,02,01,04,14.50
2010,06,02,01,05,24.20
2010,06,02,01,06,14.50
2010,06,02,01,07,11.30
2010,06,02,01,08,11.30
2010,06,02,01,09,12.90
2010,06,02,01,10,14.50
2010,06,02,01,11,12.90
2010,06,02,01,12,14.50
2010,06,02,01,13,19.30
2010,06,02,01,14,24.20
2010,06,02,01,15,17.70
2010,06,02,01,16,9.60
2010,06,02,01,17,17.70
2010,06,02,01,18,20.90
2010,06,02,01,19,12.90
2010,06,02,01,20,19.30
2010,06,02,01,21,11.30
2010,06,02,01,22,6.40
2010,06,02,01,23,17.70
2010,06,02,01,24,12.90
2010,06,02,01,25,14.50
2010,06,02,01,26,9.60
2010,06,02,01,27,9.60
2010,06,02,01,28,12.90
2010,06,02,01,29,11.30
2010,06,02,01,30,12.90
2010,06,02,01,31,14.50
2010,06,02,01,32,12.90
2010,06,02,01,33,14.50
2010,06,02,01,34,19.30
2010,06,02,01,35,14.50
2010,06,02,01,36,9.60
2010,06,02,01,37,14.50
2010,06,02,01,38,17.70
2010,06,02,01,39,14.50
2010,06,02,01,40,12.90
2010,06,02,01,41,14.50
2010,06,02,01,42,14.50
2010,06,02,01,43,12.90
2010,06,02,01,44,11.30
2010,06,02,01,45,11.30
2010,06,02,01,46,9.60
2010,06,02,01,47,11.30
2010,06,02,01,48,14.50
2010,06,02,01,49,12.90
2010,06,02,01,50,11.30
2010,06,02,01,51,8.10
2010,06,02,01,52,8.10
2010,06,02,01,53,11.30
2010,06,02,01,54,11.30
2010,06,02,01,55,14.50
2010,06,02,01,56,12.90
2010,06,02,01,57,22.50
2010,06,02,01,58,17.70
2010,06,02,01,59,14.50
2010,06,02,02,00,11.30
2010,06,02,02,01,17.70
2010,06,02,02,02,11.30
2010,06,02,02,03,11.30
2010,06,02,02,04,12.90
2010,06,02,02,05,12.90
2010,06,02,02,06,14.50
2010,06,02,02,07,17.70
2010,06,02,02,08,9.60
2010,06,02,02,09,11.30
2010,06,02,02,10,19.30
2010,06,02,02,11,19.30
2010,06,02,02,12,11.30
2010,06,02,02,13,17.70
2010,06,02,02,14,11.30
2010,06,02,02,15,14.50
2010,06,02,02,16,14.50
2010,06,02,02,17,24.20
2010,06,02,02,18,12.90
2010,06,02,02,19,14.50
2010,06,02,02,20,12.90
2010,06,02,02,21,12.90
2010,06,02,02,22,12.90
2010,06,02,02,23,9.60
2010,06,02,02,24,29.00
2010,06,02,02,25,19.30
2010,06,02,02,26,24.20
2010,06,02,02,27,17.70
2010,06,02,02,28,16.10
2010,06,02,02,29,12.90
2010,06,02,02,30,20.90
2010,06,02,02,31,19.30
2010,06,02,02,32,12.90
2010,06,02,02,33,19.30
2010,06,02,02,34,11.30
2010,06,02,02,35,9.60
2010,06,02,02,36,8.10
2010,06,02,02,37,11.30
2010,06,02,02,38,8.10
2010,06,02,02,39,14.50
2010,06,02,02,40,12.90
2010,06,02,02,41,9.60
2010,06,02,02,42,8.10
2010,06,02,02,43,6.40
2010,06,02,02,44,11.30
2010,06,02,02,45,8.10
2010,06,02,02,46,6.40
2010,06,02,02,47,8.10
2010,06,02,02,48,6.40
2010,06,02,02,49,8.10
2010,06,02,02,50,3.20
2010,06,02,02,51,6.40
2010,06,02,02,52,6.40
2010,06,02,02,53,3.20
2010,06,02,02,54,9.60
2010,06,02,02,55,9.60
2010,06,02,02,56,3.20
2010,06,02,02,57,1.60
2010,06,02,02,58,1.60
2010,06,02,02,59,3.20
2010,06,02,03,01,3.20
2010,06,02,03,02,3.20
2010,06,02,03,03,8.10
2010,06,02,03,04,1.60
2010,06,02,03,06,1.60
2010,06,02,03,08,1.60
2010,06,02,03,09,1.60
2010,06,02,03,10,1.60
2010,06,02,03,13,3.20
2010,06,02,03,14,3.20
2010,06,02,03,15,6.40
2010,06,02,03,16,3.20
2010,06,02,03,17,4.80
2010,06,02,03,18,1.60
2010,06,02,03,19,1.60
2010,06,02,03,21,1.60
2010,06,02,03,23,1.60
2010,06,02,03,26,3.20
2010,06,02,03,27,1.60
2010,06,02,03,28,3.20
2010,06,02,03,29,3.20
2010,06,02,03,30,4.80
2010,06,02,03,31,3.20
2010,06,02,03,32,3.20
2010,06,02,03,33,4.80
2010,06,02,03,36,3.20
2010,06,02,03,37,4.80
2010,06,02,03,38,3.20
2010,06,02,03,39,6.40
2010,06,02,03,40,3.20
2010,06,02,03,42,4.80
2010,06,02,03,43,4.80
2010,06,02,03,44,1.60
2010,06,02,03,45,6.40
2010,06,02,03,46,6.40
2010,06,02,03,47,1.60
2010,06,02,03,48,1.60
2010,06,02,03,50,1.60
2010,06,02,03,51,1.60
2010,06,02,03,52,1.60
2010,06,02,03,54,1.60
2010,06,02,03,56,1.60
2010,06,02,03,57,1.60
2010,06,02,03,58,6.40
2010,06,02,03,59,4.80
2010,06,02,04,00,4.80
2010,06,02,04,01,8.10
2010,06,02,04,02,4.80
2010,06,02,04,03,11.30
2010,06,02,04,04,12.90
2010,06,02,04,05,16.10
2010,06,02,04,06,11.30
2010,06,02,04,07,9.60
2010,06,02,04,08,9.60
2010,06,02,04,09,8.10
2010,06,02,04,10,14.50
2010,06,02,04,11,14.50
2010,06,02,04,12,11.30
2010,06,02,04,13,11.30
2010,06,02,04,14,11.30
2010,06,02,04,15,9.60
2010,06,02,04,16,9.60
2010,06,02,04,17,9.60
2010,06,02,04,18,11.30
2010,06,02,04,19,11.30
2010,06,02,04,20,11.30
2010,06,02,04,21,6.40
2010,06,02,04,22,8.10
2010,06,02,04,23,12.90
2010,06,02,04,24,9.60
2010,06,02,04,25,11.30
2010,06,02,04,26,9.60
2010,06,02,04,27,11.30
2010,06,02,04,28,12.90
2010,06,02,04,29,12.90
2010,06,02,04,30,9.60
2010,06,02,04,31,8.10
2010,06,02,04,32,6.40
2010,06,02,04,33,12.90
2010,06,02,04,34,9.60
2010,06,02,04,35,11.30
2010,06,02,04,36,8.10
2010,06,02,04,37,4.80
2010,06,02,04,38,4.80
2010,06,02,04,39,1.60
2010,06,02,04,40,6.40
2010,06,02,04,41,3.20
2010,06,02,04,42,8.10
2010,06,02,04,43,9.60
2010,06,02,04,44,8.10
2010,06,02,04,45,6.40
2010,06,02,04,46,8.10
2010,06,02,04,47,6.40
2010,06,02,04,48,6.40
2010,06,02,04,49,14.50
2010,06,02,04,50,12.90
2010,06,02,04,51,6.40
2010,06,02,04,52,3.20
2010,06,02,04,53,3.20
2010,06,02,04,54,8.10
2010,06,02,04,55,8.10
2010,06,02,04,56,11.30
2010,06,02,04,57,6.40
2010,06,02,04,58,6.40
2010,06,02,04,59,8.10
2010,06,02,05,00,3.20
2010,06,02,05,01,6.40
2010,06,02,05,02,8.10
2010,06,02,05,03,8.10
2010,06,02,05,04,3.20
2010,06,02,05,05,3.20
2010,06,02,05,06,8.10
2010,06,02,05,07,8.10
2010,06,02,05,08,8.10
2010,06,02,05,09,8.10
2010,06,02,05,10,6.40
2010,06,02,05,11,6.40
2010,06,02,05,12,11.30
2010,06,02,05,13,9.60
2010,06,02,05,14,12.90
2010,06,02,05,15,8.10
2010,06,02,05,16,17.70
2010,06,02,05,17,11.30
2010,06,02,05,18,22.50
2010,06,02,05,19,17.70
2010,06,02,05,20,16.10
2010,06,02,05,21,11.30
2010,06,02,05,22,9.60
2010,06,02,05,23,6.40
2010,06,02,05,24,6.40
2010,06,02,05,25,8.10
2010,06,02,05,26,8.10
2010,06,02,05,27,12.90
2010,06,02,05,28,19.30
2010,06,02,05,29,12.90
2010,06,02,05,30,12.90
2010,06,02,05,31,12.90
2010,06,02,05,32,12.90
2010,06,02,05,33,11.30
2010,06,02,05,34,11.30
2010,06,02,05,35,16.10
2010,06,02,05,36,9.60
2010,06,02,05,37,12.90
2010,06,02,05,38,17.70
2010,06,02,05,39,12.90
2010,06,02,05,40,16.10
2010,06,02,05,41,9.60
2010,06,02,05,42,9.60
2010,06,02,05,43,12.90
2010,06,02,05,44,12.90
2010,06,02,05,45,9.60
2010,06,02,05,46,16.10
2010,06,02,05,47,9.60
2010,06,02,05,48,12.90
2010,06,02,05,49,6.40
2010,06,02,05,50,8.10
2010,06,02,05,51,6.40
2010,06,02,05,52,8.10
2010,06,02,05,53,12.90
2010,06,02,05,54,11.30
2010,06,02,05,55,14.50
2010,06,02,05,56,11.30
2010,06,02,05,57,12.90
2010,06,02,05,58,11.30
2010,06,02,05,59,11.30
2010,06,02,06,00,16.10
2010,06,02,06,01,16.10
2010,06,02,06,02,8.10
2010,06,02,06,03,6.40
2010,06,02,06,04,19.30
2010,06,02,06,05,19.30
2010,06,02,06,06,22.50
2010,06,02,06,07,14.50
2010,06,02,06,08,22.50
2010,06,02,06,09,17.70
2010,06,02,06,10,17.70
2010,06,02,06,11,12.90
2010,06,02,06,12,9.60
2010,06,02,06,13,19.30
2010,06,02,06,14,17.70
2010,06,02,06,15,22.50
2010,06,02,06,16,19.30
2010,06,02,06,17,12.90
2010,06,02,06,18,17.70
2010,06,02,06,19,14.50
2010,06,02,06,20,17.70
2010,06,02,06,21,17.70
2010,06,02,06,22,17.70
2010,06,02,06,23,11.30
2010,06,02,06,24,9.60
2010,06,02,06,25,14.50
2010,06,02,06,26,17.70
2010,06,02,06,27,12.90
2010,06,02,06,28,19.30
2010,06,02,06,29,17.70
2010,06,02,06,30,22.50
2010,06,02,06,31,20.90
2010,06,02,06,32,17.70
2010,06,02,06,33,16.10
2010,06,02,06,34,16.10
2010,06,02,06,35,12.90
2010,06,02,06,36,11.30
2010,06,02,06,37,12.90
2010,06,02,06,38,17.70
2010,06,02,06,39,11.30
2010,06,02,06,40,9.60
2010,06,02,06,41,9.60
2010,06,02,06,42,9.60
2010,06,02,06,43,11.30
2010,06,02,06,44,9.60
2010,06,02,06,45,12.90
2010,06,02,06,46,12.90
2010,06,02,06,47,14.50
2010,06,02,06,48,17.70
2010,06,02,06,49,11.30
2010,06,02,06,50,6.40
2010,06,02,06,51,12.90
2010,06,02,06,52,19.30
2010,06,02,06,53,12.90
2010,06,02,06,54,9.60
2010,06,02,06,55,14.50
2010,06,02,06,56,12.90
2010,06,02,06,57,17.70
2010,06,02,06,58,9.60
2010,06,02,06,59,4.80
2010,06,02,07,00,19.30
2010,06,02,07,01,17.70
2010,06,02,07,02,12.90
2010,06,02,07,03,8.10
2010,06,02,07,04,9.60
2010,06,02,07,05,19.30
2010,06,02,07,06,14.50
2010,06,02,07,07,12.90
2010,06,02,07,08,11.30
2010,06,02,07,09,12.90
2010,06,02,07,10,12.90
2010,06,02,07,11,8.10
2010,06,02,07,12,9.60
2010,06,02,07,13,9.60
2010,06,02,07,14,11.30
2010,06,02,07,15,4.80
2010,06,02,07,16,6.40
2010,06,02,07,17,6.40
2010,06,02,07,18,9.60
2010,06,02,07,19,8.10
2010,06,02,07,20,8.10
2010,06,02,07,21,6.40
2010,06,02,07,22,9.60
2010,06,02,07,23,3.20
2010,06,02,07,24,4.80
2010,06,02,07,25,4.80
2010,06,02,07,26,4.80
2010,06,02,07,27,4.80
2010,06,02,07,28,9.60
2010,06,02,07,29,6.40
2010,06,02,07,30,6.40
2010,06,02,07,31,11.30
2010,06,02,07,32,12.90
2010,06,02,07,33,9.60
2010,06,02,07,34,9.60
2010,06,02,07,35,11.30
2010,06,02,07,36,6.40
2010,06,02,07,37,6.40
2010,06,02,07,38,9.60
2010,06,02,07,39,6.40
2010,06,02,07,40,9.60
2010,06,02,07,41,8.10
2010,06,02,07,42,11.30
2010,06,02,07,43,11.30
2010,06,02,07,44,14.50
2010,06,02,07,45,9.60
2010,06,02,07,46,14.50
2010,06,02,07,47,9.60
2010,06,02,07,48,14.50
2010,06,02,07,49,14.50
2010,06,02,07,50,11.30
2010,06,02,07,51,12.90
2010,06,02,07,52,12.90
2010,06,02,07,53,14.50
2010,06,02,07,54,11.30
2010,06,02,07,55,12.90
2010,06,02,07,56,16.10
2010,06,02,07,57,14.50
2010,06,02,07,58,17.70
2010,06,02,07,59,16.10
2010,06,02,08,00,11.30
2010,06,02,08,01,9.60
2010,06,02,08,02,12.90
2010,06,02,08,03,19.30
2010,06,02,08,04,20.90
2010,06,02,08,05,14.50
2010,06,02,08,06,9.60
2010,06,02,08,07,9.60
2010,06,02,08,08,20.90
2010,06,02,08,09,11.30
2010,06,02,08,10,20.90
2010,06,02,08,11,16.10
2010,06,02,08,12,17.70
2010,06,02,08,13,16.10
2010,06,02,08,14,16.10
2010,06,02,08,15,14.50
2010,06,02,08,16,6.40
2010,06,02,08,17,16.10
2010,06,02,08,18,11.30
2010,06,02,08,19,24.20
2010,06,02,08,20,19.30
2010,06,02,08,21,12.90
2010,06,02,08,22,12.90
2010,06,02,08,23,6.40
2010,06,02,08,24,17.70
2010,06,02,08,25,12.90
2010,06,02,08,26,9.60
2010,06,02,08,27,17.70
2010,06,02,08,28,12.90
2010,06,02,08,29,14.50
2010,06,02,08,30,17.70
2010,06,02,08,31,16.10
2010,06,02,08,32,9.60
2010,06,02,08,33,9.60
2010,06,02,08,34,11.30
2010,06,02,08,35,11.30
2010,06,02,08,36,14.50
2010,06,02,08,37,11.30
2010,06,02,08,38,14.50
2010,06,02,08,39,9.60
2010,06,02,08,40,11.30
2010,06,02,08,41,9.60
2010,06,02,08,42,14.50
2010,06,02,08,43,11.30
2010,06,02,08,44,6.40
2010,06,02,08,45,4.80
2010,06,02,08,46,4.80
2010,06,02,08,47,8.10
2010,06,02,08,48,14.50
2010,06,02,08,49,16.10
2010,06,02,08,50,17.70
2010,06,02,08,51,12.90
2010,06,02,08,52,9.60
2010,06,02,08,53,8.10
2010,06,02,08,54,14.50
2010,06,02,08,55,11.30
2010,06,02,08,56,14.50
2010,06,02,08,57,12.90
2010,06,02,08,58,9.60
2010,06,02,08,59,9.60
2010,06,02,09,00,11.30
2010,06,02,09,01,8.10
2010,06,02,09,02,11.30
2010,06,02,09,03,8.10
2010,06,02,09,04,6.40
2010,06,02,09,05,14.50
2010,06,02,09,06,9.60
2010,06,02,09,07,8.10
2010,06,02,09,08,9.60
2010,06,02,09,09,9.60
2010,06,02,09,10,11.30
2010,06,02,09,11,11.30
2010,06,02,09,12,17.70
2010,06,02,09,13,12.90
2010,06,02,09,14,8.10
2010,06,02,09,15,8.10
2010,06,02,09,16,12.90
2010,06,02,09,17,11.30
2010,06,02,09,18,11.30
2010,06,02,09,19,8.10
2010,06,02,09,20,4.80
2010,06,02,09,21,8.10
2010,06,02,09,22,9.60
2010,06,02,09,23,8.10
2010,06,02,09,24,11.30
2010,06,02,09,25,11.30
2010,06,02,09,26,6.40
2010,06,02,09,27,11.30
2010,06,02,09,28,8.10
2010,06,02,09,29,8.10
2010,06,02,09,30,9.60
2010,06,02,09,31,9.60
2010,06,02,09,32,12.90
2010,06,02,09,33,8.10
2010,06,02,09,34,9.60
2010,06,02,09,35,8.10
2010,06,02,09,36,4.80
2010,06,02,09,37,4.80
2010,06,02,09,38,8.10
2010,06,02,09,39,8.10
2010,06,02,09,40,6.40
2010,06,02,09,41,3.20
2010,06,02,09,42,1.60
2010,06,02,09,43,1.60
2010,06,02,09,44,1.60
2010,06,02,09,45,6.40
2010,06,02,09,46,3.20
2010,06,02,09,47,6.40
2010,06,02,09,48,6.40
2010,06,02,09,49,3.20
2010,06,02,09,50,4.80
2010,06,02,09,51,3.20
2010,06,02,09,52,8.10
2010,06,02,09,53,6.40
2010,06,02,09,54,6.40
2010,06,02,09,55,4.80
2010,06,02,09,56,3.20
2010,06,02,09,57,6.40
2010,06,02,09,58,6.40
2010,06,02,09,59,4.80
2010,06,02,10,00,3.20
2010,06,02,10,01,8.10
2010,06,02,10,02,8.10
2010,06,02,10,03,9.60
2010,06,02,10,04,9.60
2010,06,02,10,05,8.10
2010,06,02,10,06,8.10
2010,06,02,10,07,6.40
2010,06,02,10,08,8.10
2010,06,02,10,09,11.30
2010,06,02,10,10,9.60
2010,06,02,10,11,9.60
2010,06,02,10,12,8.10
2010,06,02,10,13,4.80
2010,06,02,10,14,9.60
2010,06,02,10,15,6.40
2010,06,02,10,16,6.40
2010,06,02,10,17,6.40
2010,06,02,10,18,3.20
2010,06,02,10,19,4.80
2010,06,02,10,20,4.80
2010,06,02,10,21,3.20
2010,06,02,10,22,1.60
2010,06,02,10,23,3.20
2010,06,02,10,24,1.60
2010,06,02,10,25,1.60
2010,06,02,10,26,6.40
2010,06,02,10,27,3.20
2010,06,02,10,28,3.20
2010,06,02,10,29,6.40
2010,06,02,10,30,6.40
2010,06,02,10,31,6.40
2010,06,02,10,32,8.10
2010,06,02,10,33,8.10
2010,06,02,10,34,6.40
2010,06,02,10,35,1.60
2010,06,02,10,36,6.40
2010,06,02,10,37,6.40
2010,06,02,10,38,3.20
2010,06,02,10,39,3.20
2010,06,02,10,40,1.60
2010,06,02,10,43,1.60
2010,06,02,10,44,1.60
2010,06,02,10,45,1.60
2010,06,02,10,46,3.20
2010,06,02,10,48,1.60
2010,06,02,10,51,1.60
2010,06,02,10,52,1.60
2010,06,02,10,53,1.60
2010,06,02,10,55,3.20
2010,06,02,10,56,1.60
2010,06,02,10,57,1.60
2010,06,02,10,58,1.60
2010,06,02,10,59,1.60
2010,06,02,11,00,1.60
2010,06,02,11,02,3.20
2010,06,02,11,03,3.20
2010,06,02,11,04,3.20
2010,06,02,11,05,3.20
2010,06,02,11,06,3.20
2010,06,02,11,07,6.40
2010,06,02,11,08,3.20
2010,06,02,11,09,3.20
2010,06,02,11,10,3.20
2010,06,02,11,11,6.40
2010,06,02,11,12,6.40
2010,06,02,11,13,6.40
2010,06,02,11,14,6.40
2010,06,02,11,15,8.10
2010,06,02,11,16,3.20
2010,06,02,11,17,1.60
2010,06,02,11,18,1.60
2010,06,02,11,23,1.60
2010,06,02,11,24,1.60
2010,06,02,11,25,1.60
2010,06,02,11,26,6.40
2010,06,02,11,27,3.20
2010,06,02,11,28,3.20
2010,06,02,11,29,3.20
2010,06,02,11,30,3.20
2010,06,02,11,31,6.40
2010,06,02,11,32,4.80
2010,06,02,11,33,3.20
2010,06,02,11,34,3.20
2010,06,02,11,36,3.20
2010,06,02,11,37,3.20
2010,06,02,11,38,1.60
2010,06,02,11,39,1.60
2010,06,02,11,40,3.20
2010,06,02,11,41,6.40
2010,06,02,11,42,3.20
2010,06,02,11,43,1.60
2010,06,02,11,44,3.20
2010,06,02,11,45,6.40
2010,06,02,11,46,3.20
2010,06,02,11,47,1.60
2010,06,02,11,48,1.60
2010,06,02,11,49,1.60
2010,06,02,11,51,1.60
2010,06,02,11,52,1.60
2010,06,02,11,53,1.60
2010,06,02,11,54,1.60
2010,06,02,11,55,3.20
2010,06,02,11,56,6.40
2010,06,02,11,57,3.20
2010,06,02,11,58,3.20
2010,06,02,11,59,4.80
2010,06,02,12,00,6.40
2010,06,02,12,01,4.80
2010,06,02,12,02,3.20
2010,06,02,12,03,3.20
2010,06,02,12,04,3.20
2010,06,02,12,05,3.20
2010,06,02,12,06,3.20
2010,06,02,12,07,1.60
2010,06,02,12,08,1.60
2010,06,02,12,09,1.60
2010,06,02,12,11,3.20
2010,06,02,12,12,3.20
2010,06,02,12,13,1.60
2010,06,02,12,14,1.60
2010,06,02,12,15,1.60
2010,06,02,12,16,8.10
2010,06,02,12,17,8.10
2010,06,02,12,18,9.60
2010,06,02,12,19,8.10
2010,06,02,12,20,4.80
2010,06,02,12,21,6.40
2010,06,02,12,22,8.10
2010,06,02,12,23,1.60
2010,06,02,12,24,8.10
2010,06,02,12,25,3.20
2010,06,02,12,26,6.40
2010,06,02,12,27,11.30
2010,06,02,12,28,11.30
2010,06,02,12,29,12.90
2010,06,02,12,30,12.90
2010,06,02,12,31,11.30
2010,06,02,12,32,11.30
2010,06,02,12,33,8.10
2010,06,02,12,34,8.10
2010,06,02,12,35,9.60
2010,06,02,12,36,6.40
2010,06,02,12,37,19.30
2010,06,02,12,38,17.70
2010,06,02,12,39,14.50
2010,06,02,12,40,12.90
2010,06,02,12,41,11.30
2010,06,02,12,42,9.60
2010,06,02,12,43,12.90
2010,06,02,12,44,12.90
2010,06,02,12,45,19.30
2010,06,02,12,46,12.90
2010,06,02,12,47,20.90
2010,06,02,12,48,12.90
2010,06,02,12,49,12.90
2010,06,02,12,50,16.10
2010,06,02,12,51,8.10
2010,06,02,12,52,20.90
2010,06,02,12,53,16.10
2010,06,02,12,54,9.60
2010,06,02,12,55,12.90
2010,06,02,12,56,9.60
2010,06,02,12,57,17.70
2010,06,02,12,58,19.30
2010,06,02,12,59,12.90
2010,06,02,13,00,9.60
2010,06,02,13,01,6.40
2010,06,02,13,02,6.40
2010,06,02,13,03,12.90
2010,06,02,13,04,9.60
2010,06,02,13,05,9.60
2010,06,02,13,06,11.30
2010,06,02,13,07,6.40
2010,06,02,13,08,11.30
2010,06,02,13,09,16.10
2010,06,02,13,10,12.90
2010,06,02,13,11,17.70
2010,06,02,13,12,11.30
2010,06,02,13,13,19.30
2010,06,02,13,14,20.90
2010,06,02,13,15,20.90
2010,06,02,13,16,12.90
2010,06,02,13,17,20.90
2010,06,02,13,18,9.60
2010,06,02,13,19,6.40
2010,06,02,13,20,12.90
2010,06,02,13,21,12.90
2010,06,02,13,22,22.50
2010,06,02,13,23,17.70
2010,06,02,13,24,17.70
2010,06,02,13,25,29.00
2010,06,02,13,26,17.70
2010,06,02,13,27,16.10
2010,06,02,13,28,20.90
2010,06,02,13,29,14.50
2010,06,02,13,30,19.30
2010,06,02,13,31,24.20
2010,06,02,13,32,17.70
2010,06,02,13,33,25.70
2010,06,02,13,34,29.00
2010,06,02,13,35,20.90
2010,06,02,13,36,16.10
2010,06,02,13,37,14.50
2010,06,02,13,38,9.60
2010,06,02,13,39,12.90
2010,06,02,13,40,19.30
2010,06,02,13,41,12.90
2010,06,02,13,42,11.30
2010,06,02,13,43,17.70
2010,06,02,13,44,24.20
2010,06,02,13,45,25.70
2010,06,02,13,46,19.30
2010,06,02,13,47,24.20
2010,06,02,13,48,24.20
2010,06,02,13,49,19.30
2010,06,02,13,50,20.90
2010,06,02,13,51,20.90
2010,06,02,13,52,22.50
2010,06,02,13,53,29.00
2010,06,02,13,54,20.90
2010,06,02,13,55,12.90
2010,06,02,13,56,12.90
2010,06,02,13,57,6.40
2010,06,02,13,58,11.30
2010,06,02,13,59,14.50
2010,06,02,14,00,12.90
2010,06,02,14,01,11.30
2010,06,02,14,02,20.90
2010,06,02,14,03,17.70
2010,06,02,14,04,17.70
2010,06,02,14,05,25.70
2010,06,02,14,06,14.50
2010,06,02,14,07,22.50
2010,06,02,14,08,25.70
2010,06,02,14,09,20.90
2010,06,02,14,10,12.90
2010,06,02,14,11,30.60
2010,06,02,14,12,24.20
2010,06,02,14,13,19.30
2010,06,02,14,14,17.70
2010,06,02,14,15,20.90
2010,06,02,14,16,20.90
2010,06,02,14,17,16.10
2010,06,02,14,18,19.30
2010,06,02,14,19,19.30
2010,06,02,14,20,19.30
2010,06,02,14,21,17.70
2010,06,02,14,22,17.70
2010,06,02,14,23,16.10
2010,06,02,14,24,19.30
2010,06,02,14,25,20.90
2010,06,02,14,26,22.50
2010,06,02,14,27,22.50
2010,06,02,14,28,20.90
2010,06,02,14,29,20.90
2010,06,02,14,30,16.10
2010,06,02,14,31,17.70
2010,06,02,14,32,25.70
2010,06,02,14,33,32.20
2010,06,02,14,34,20.90
2010,06,02,14,35,29.00
2010,06,02,14,36,30.60
2010,06,02,14,37,27.40
2010,06,02,14,38,22.50
2010,06,02,14,39,24.20
2010,06,02,14,40,19.30
2010,06,02,14,41,24.20
2010,06,02,14,42,19.30
2010,06,02,14,43,25.70
2010,06,02,14,44,17.70
2010,06,02,14,45,19.30
2010,06,02,14,46,24.20
2010,06,02,14,47,24.20
2010,06,02,14,48,25.70
2010,06,02,14,49,30.60
2010,06,02,14,50,20.90
2010,06,02,14,51,35.40
2010,06,02,14,52,19.30
2010,06,02,14,53,22.50
2010,06,02,14,54,20.90
2010,06,02,14,55,25.70
2010,06,02,14,56,24.20
2010,06,02,14,57,16.10
2010,06,02,14,58,22.50
2010,06,02,14,59,19.30
2010,06,02,15,00,32.20
2010,06,02,15,01,32.20
2010,06,02,15,02,30.60
2010,06,02,15,03,33.80
2010,06,02,15,04,27.40
2010,06,02,15,05,16.10
2010,06,02,15,06,22.50
2010,06,02,15,07,35.40
2010,06,02,15,08,30.60
2010,06,02,15,09,46.70
2010,06,02,15,10,27.40
2010,06,02,15,11,32.20
2010,06,02,15,12,37.00
2010,06,02,15,13,37.00
2010,06,02,15,14,32.20
2010,06,02,15,15,24.20
2010,06,02,15,16,11.30
2010,06,02,15,17,30.60
2010,06,02,15,18,30.60
2010,06,02,15,19,35.40
2010,06,02,15,20,43.50
2010,06,02,15,21,27.40
2010,06,02,15,22,27.40
2010,06,02,15,23,19.30
2010,06,02,15,24,19.30
2010,06,02,15,25,33.80
2010,06,02,15,26,29.00
2010,06,02,15,27,19.30
2010,06,02,15,28,25.70
2010,06,02,15,29,29.00
2010,06,02,15,30,25.70
2010,06,02,15,31,24.20
2010,06,02,15,32,22.50
2010,06,02,15,33,24.20
2010,06,02,15,34,29.00
2010,06,02,15,35,30.60
2010,06,02,15,36,22.50
2010,06,02,15,37,29.00
2010,06,02,15,38,29.00
2010,06,02,15,39,30.60
2010,06,02,15,40,33.80
2010,06,02,15,41,24.20
2010,06,02,15,42,32.20
2010,06,02,15,43,35.40
2010,06,02,15,44,30.60
2010,06,02,15,45,20.90
2010,06,02,15,46,40.20
2010,06,02,15,47,38.60
2010,06,02,15,48,37.00
2010,06,02,15,49,30.60
2010,06,02,15,50,32.20
2010,06,02,15,51,22.50
2010,06,02,15,52,24.20
2010,06,02,15,53,46.70
2010,06,02,15,54,37.00
2010,06,02,15,55,22.50
2010,06,02,15,56,46.70
2010,06,02,15,57,30.60
2010,06,02,15,58,38.60
2010,06,02,15,59,35.40
2010,06,02,16,00,20.90
2010,06,02,16,01,37.00
2010,06,02,16,02,37.00
2010,06,02,16,03,35.40
2010,06,02,16,04,29.00
2010,06,02,16,05,25.70
2010,06,02,16,06,37.00
2010,06,02,16,07,40.20
2010,06,02,16,08,30.60
2010,06,02,16,09,20.90
2010,06,02,16,10,19.30
2010,06,02,16,11,32.20
2010,06,02,16,12,33.80
2010,06,02,16,13,32.20
2010,06,02,16,14,27.40
2010,06,02,16,15,29.00
2010,06,02,16,16,30.60
2010,06,02,16,17,24.20
2010,06,02,16,18,24.20
2010,06,02,16,19,20.90
2010,06,02,16,20,35.40
2010,06,02,16,21,17.70
2010,06,02,16,22,24.20
2010,06,02,16,23,29.00
2010,06,02,16,24,35.40
2010,06,02,16,25,25.70
2010,06,02,16,26,24.20
2010,06,02,16,27,19.30
2010,06,02,16,28,30.60
2010,06,02,16,29,37.00
2010,06,02,16,30,22.50
2010,06,02,16,31,19.30
2010,06,02,16,32,32.20
2010,06,02,16,33,22.50
2010,06,02,16,34,24.20
2010,06,02,16,35,20.90
2010,06,02,16,36,17.70
2010,06,02,16,37,25.70
2010,06,02,16,38,22.50
2010,06,02,16,39,24.20
2010,06,02,16,40,22.50
2010,06,02,16,41,17.70
2010,06,02,16,42,29.00
2010,06,02,16,43,30.60
2010,06,02,16,44,40.20
2010,06,02,16,45,37.00
2010,06,02,16,46,37.00
2010,06,02,16,47,30.60
2010,06,02,16,48,20.90
2010,06,02,16,49,35.40
2010,06,02,16,50,37.00
2010,06,02,16,51,33.80
2010,06,02,16,52,33.80
2010,06,02,16,53,33.80
2010,06,02,16,54,35.40
2010,06,02,16,55,37.00
2010,06,02,16,56,29.00
2010,06,02,16,57,32.20
2010,06,02,16,58,33.80
2010,06,02,16,59,37.00
2010,06,02,17,00,30.60
2010,06,02,17,01,27.40
2010,06,02,17,02,33.80
2010,06,02,17,03,45.10
2010,06,02,17,04,33.80
2010,06,02,17,05,17.70
2010,06,02,17,06,41.80
2010,06,02,17,07,38.60
2010,06,02,17,08,45.10
2010,06,02,17,09,24.20
2010,06,02,17,10,35.40
2010,06,02,17,11,41.80
2010,06,02,17,12,38.60
2010,06,02,17,13,49.90
2010,06,02,17,14,40.20
2010,06,02,17,15,19.30
2010,06,02,17,16,32.20
2010,06,02,17,17,45.10
2010,06,02,17,18,24.20
2010,06,02,17,19,56.30
2010,06,02,17,20,38.60
2010,06,02,17,21,45.10
2010,06,02,17,22,46.70
2010,06,02,17,23,35.40
2010,06,02,17,24,37.00
2010,06,02,17,25,32.20
2010,06,02,17,26,35.40
2010,06,02,17,27,40.20
2010,06,02,17,28,54.70
2010,06,02,17,29,49.90
2010,06,02,17,30,33.80
2010,06,02,17,31,40.20
2010,06,02,17,32,29.00
2010,06,02,17,33,32.20
2010,06,02,17,34,30.60
2010,06,02,17,35,33.80
2010,06,02,17,36,43.50
2010,06,02,17,37,32.20
2010,06,02,17,38,24.20
2010,06,02,17,39,37.00
2010,06,02,17,40,37.00
2010,06,02,17,41,45.10
2010,06,02,17,42,43.50
2010,06,02,17,43,40.20
2010,06,02,17,44,32.20
2010,06,02,17,45,45.10
2010,06,02,17,46,38.60
2010,06,02,17,47,38.60
2010,06,02,17,48,25.70
2010,06,02,17,49,51.50
2010,06,02,17,50,49.90
2010,06,02,17,51,43.50
2010,06,02,17,52,46.70
2010,06,02,17,53,32.20
2010,06,02,17,54,41.80
2010,06,02,17,55,37.00
2010,06,02,17,56,41.80
2010,06,02,17,57,32.20
2010,06,02,17,58,45.10
2010,06,02,17,59,35.40
2010,06,02,18,00,35.40
2010,06,02,18,01,45.10
2010,06,02,18,02,37.00
2010,06,02,18,03,51.50
2010,06,02,18,04,46.70
2010,06,02,18,05,33.80